Location: Anjeux
(47.8815°N, 6.2076°E)
Time: 17:37:11
(UTC+00:00)

Meteor 1-31 Rocket - Pass Details

Date: 05 March 2021
Orbit: 519 x 547 km, 97.7° (Epoch: 14 April)

Event Time Altitude Azimuth Distance (km) Brightness Sun altitude
Rises 04:42:16 0° 12° (NNE) 2,709 6.6 -15.2°
Reaches altitude 10° 04:44:24 10° 12° (NNE) 1,808 5.7 -14.8°
Maximum altitude 04:48:18 84° 285° (WNW) 544 2.7 -14.2°
Drops below altitude 10° 04:52:09 10° 197° (SSW) 1,775 5.2 -13.6°
Sets 04:54:14 0° 197° (SSW) 2,656 6.1 -13.2°
